Wind_Speed
38 36 34 31 29 26 24 24 23 22 23 23 22 22 23 24 24 24 28 29 28 31 36 38 39 40 41 40 42 44 43 44 48 50 52 52 52 51 59 52 51 47 43 44 38
34 32 29 27 26 23 20 19 18 18 19 18 18 18 19 20 21 23 25 26 28 30 33 34 36 37 38 36 40 42 43 43 46 49 50 51 52 52 50 44 46 43 41 43 43
30 28 26 24 22 20 17 15 15 14 15 16 16 17 18 19 20 20 22 23 25 26 30 33 35 38 37 37 40 43 43 43 44 45 48 51 51 52 47 46 43 42 42 42 43
27 24 23 21 19 17 15 13 11 11 13 14 15 17 19 20 19 21 21 22 25 27 30 32 32 39 38 41 42 45 44 45 43 43 45 47 49 51 49 49 45 42 40 40 43
22 19 18 17 16 15 13 10 9 9 11 11 12 13 15 17 20 21 21 24 25 26 28 29 33 38 39 43 45 44 43 45 47 46 44 47 51 52 51 51 52 50 48 50 47
19 17 15 14 13 12 11 10 10 9 9 10 10 11 13 17 20 21 22 24 26 26 27 30 34 37 40 43 45 46 43 44 46 45 44 49 50 51 52 54 51 52 52 53 52
16 15 13 12 12 11 9 8 7 6 6 6 8 11 15 18 20 23 24 25 26 27 30 32 34 37 39 43 46 50 47 45 46 45 47 48 50 51 51 51 49 51 50 51 51
16 14 11 11 10 9 6 4 3 2 2 4 8 12 15 19 22 24 26 27 28 31 32 34 35 37 40 43 47 51 52 50 47 45 49 51 54 53 54 54 53 53 53 56 57
15 13 11 10 7 5 4 2 1 2 4 7 11 14 16 21 24 26 27 28 30 31 33 36 36 39 42 44 48 52 53 55 51 47 50 55 58 57 59 60 57 54 53 56 67
13 12 11 10 8 6 5 4 4 5 7 9 12 16 20 23 26 28 30 31 33 34 36 39 40 42 44 47 50 52 55 56 56 52 52 57 58 60 62 57 56 55 57 59 67
13 12 11 10 9 9 8 10 11 12 14 15 16 18 21 25 28 31 33 36 37 40 41 43 43 44 45 48 51 53 55 57 55 53 55 57 59 61 63 58 58 57 61 65 73
14 12 10 10 11 12 13 14 16 18 19 19 21 23 25 29 31 32 35 38 40 43 44 47 47 47 48 50 52 56 57 59 57 54 56 59 59 63 65 63 60 65 65 70 69
15 14 13 13 14 16 16 17 19 20 21 22 25 27 29 32 34 36 38 41 43 45 47 49 50 51 52 53 54 55 57 60 58 59 61 60 64 64 63 62 59 69 73 77 82
20 20 19 18 18 19 20 20 20 21 25 27 29 31 34 36 38 40 41 43 47 49 50 52 53 54 54 55 57 59 60 60 58 59 64 64 64 67 64 63 65 71 76 82 84
25 26 25 24 24 24 25 24 25 26 29 31 34 36 38 40 41 42 44 47 50 52 54 54 55 56 56 56 59 60 59 59 56 60 66 67 67 70 67 64 69 78 82 88 91
28 28 29 29 28 27 28 29 30 31 34 36 38 40 41 42 44 46 49 51 53 55 57 58 58 58 58 59 62 60 57 57 57 59 62 64 65 69 70 73 76 77 86 90 94
33 32 32 32 32 32 32 32 34 36 38 40 42 44 46 46 48 50 53 56 57 57 59 60 61 62 64 64 63 61 61 60 61 61 63 67 68 74 78 78 80 83 88 93 98
35 36 36 36 36 37 37 38 39 41 43 44 46 48 50 51 53 55 57 59 61 60 60 63 66 68 68 66 60 62 69 70 72 71 67 70 75 76 79 79 83 86 92 96 102
40 40 40 41 41 42 43 44 44 46 49 50 51 51 55 57 58 60 63 63 63 64 65 64 67 69 67 65 64 67 72 75 78 77 72 71 67 74 82 86 92 94 98 100 103
46 46 45 46 46 47 48 48 50 53 53 54 56 57 59 61 62 63 65 65 65 68 69 67 63 67 67 65 71 75 78 82 86 86 79 72 68 84 83 88 92 98 101 104 104
52 52 52 52 52 53 53 55 57 58 59 59 61 61 62 63 65 66 69 70 71 72 72 69 66 67 66 70 75 78 81 85 88 86 87 85 73 87 93 95 98 103 106 109 110
57 57 59 59 59 59 60 60 61 63 64 64 66 68 69 70 68 71 74 77 74 74 69 70 68 62 68 75 79 80 86 90 90 87 85 88 81 93 97 97 105 109 111 111 113
62 64 64 64 65 65 65 67 67 68 70 69 70 72 74 74 74 74 77 77 76 77 74 71 66 69 72 79 83 84 90 93 89 87 89 93 94 99 106 105 110 112 113 114 115
68 69 70 71 70 70 71 71 73 73 73 75 75 76 77 78 81 79 78 77 76 75 72 72 72 79 80 82 88 87 91 91 95 97 99 99 101 105 112 114 117 118 120 120 119
74 73 73 74 76 76 75 75 77 77 77 80 80 80 81 81 81 80 76 71 71 75 79 82 81 84 82 89 92 88 91 96 99 100 108 106 108 115 116 120 122 124 123 123 118
80 80 79 79 80 80 82 80 81 84 84 79 81 85 83 76 73 67 72 76 76 79 83 87 89 92 86 95 92 83 94 99 102 105 112 117 115 119 121 126 126 126 126 120 119
83 84 83 78 82 85 86 86 85 84 83 83 80 74 75 77 77 80 81 82 83 84 87 91 95 100 96 97 95 95 100 101 104 108 117 120 123 125 126 126 126 126 123 121 119
Wind_Direction
126 126 123 117 113 109 104 100 92 84 77 74 65 55 50 44 39 32 29 25 21 20 18 17 17 15 14 14 10 12 16 18 15 13 10 6 5 6 5 5 6 8 10 10 17
128 124 121 119 117 114 108 99 94 85 76 70 65 51 44 37 32 25 22 22 19 15 16 13 12 11 9 11 6 9 11 14 12 9 11 6 3 1 2 5 7 8 8 15 13
127 124 122 120 118 117 116 106 94 85 77 67 60 54 45 37 31 28 27 21 19 13 11 12 9 10 12 11 6 4 7 9 9 10 7 5 3 1 0 1 4 7 13 12 15
129 129 129 126 124 128 125 116 107 89 77 70 61 52 44 38 36 31 25 21 21 17 12 11 6 9 9 8 5 2 1 2 4 3 6 3 2 358 354 355 356 354 356 360 8
132 132 131 132 137 138 136 132 111 90 80 69 59 47 36 29 26 22 19 16 16 14 12 10 7 6 7 5 5 5 2 358 357 358 357 357 356 355 354 350 345 346 349 350 355
137 136 134 136 139 139 141 131 102 93 77 57 44 28 19 18 18 13 9 9 9 10 7 4 3 5 4 2 3 3 2 360 357 355 353 353 355 354 352 348 345 341 338 353 357
143 142 137 131 132 135 127 107 100 85 62 34 16 11 13 12 7 5 4 2 1 1 359 358 357 360 360 360 359 1 358 355 354 351 350 350 352 351 350 347 340 338 341 351 353
149 148 151 148 142 132 129 129 119 81 13 355 0 2 3 360 357 357 355 354 353 353 353 352 350 352 353 353 354 355 355 353 352 350 352 353 350 349 346 344 342 339 337 347 355
155 159 157 151 152 162 173 178 238 286 321 339 343 347 348 350 349 347 347 346 346 346 345 344 344 346 346 347 347 347 349 350 348 347 345 348 346 343 342 342 339 338 341 344 354
170 173 180 184 196 217 229 253 269 297 297 308 327 333 339 339 341 340 339 338 339 340 339 339 340 342 341 341 341 343 344 344 344 343 341 340 341 341 339 342 340 338 340 340 349
195 200 204 216 224 244 262 266 279 292 296 307 317 323 326 330 332 332 332 332 334 336 336 336 336 336 336 336 337 340 339 339 341 342 340 338 339 339 339 340 341 342 344 347 351
219 218 229 244 254 259 264 273 281 289 296 303 310 315 320 322 324 324 325 328 330 332 332 333 332 333 331 333 335 335 335 335 335 337 338 337 335 334 334 333 334 339 342 341 340
238 241 250 258 262 268 275 282 287 289 291 299 307 309 309 315 318 320 323 325 326 328 330 329 330 328 328 330 330 330 330 331 332 334 337 336 330 332 333 334 334 341 343 346 346
245 249 255 266 270 274 276 283 288 291 293 299 301 303 307 312 316 318 320 321 323 325 325 325 326 327 326 326 327 327 328 329 331 334 334 333 330 328 331 332 337 342 345 347 345
248 251 256 263 267 271 276 280 280 284 287 298 300 304 306 310 312 314 315 319 321 321 322 322 323 324 324 323 322 323 325 328 330 331 331 330 331 330 327 332 339 340 343 343 344
253 253 255 259 263 268 273 276 279 284 290 294 297 301 305 305 307 309 313 316 319 319 320 320 319 318 318 319 320 320 322 325 327 329 330 329 326 326 325 327 337 339 341 340 343
255 257 258 262 265 270 272 274 280 286 289 292 295 298 300 302 305 309 312 314 315 315 316 316 316 317 317 318 319 318 320 319 322 325 323 322 324 322 321 327 334 338 340 339 341
258 261 264 266 268 270 273 278 282 286 288 291 291 295 298 300 304 308 310 310 313 313 312 313 314 316 317 316 316 315 316 315 317 319 321 321 322 321 320 324 331 334 336 338 339
258 262 265 267 269 272 276 279 284 287 287 288 290 295 299 303 305 306 307 307 309 309 308 310 315 314 314 315 314 313 313 315 315 318 320 321 327 317 318 325 333 332 335 337 337
261 264 265 268 271 273 275 279 280 281 285 288 290 294 300 302 303 304 305 304 305 306 306 309 312 310 311 314 313 314 313 315 315 314 316 321 322 318 324 326 330 332 335 336 335
265 268 270 272 274 275 277 278 281 284 287 290 294 297 299 299 300 301 301 301 302 303 305 306 308 309 310 312 311 313 313 315 315 315 314 316 324 318 324 328 328 330 333 333 332
269 271 272 273 274 278 279 281 284 286 289 290 292 294 296 296 297 299 299 299 303 303 304 303 306 304 308 310 312 314 313 313 310 314 316 314 326 323 322 327 328 330 331 330 328
266 269 271 272 275 276 278 281 284 284 285 288 290 290 291 293 295 296 297 300 301 302 303 302 304 303 308 305 307 311 310 311 307 308 312 317 322 322 323 327 325 328 327 325 324
265 267 269 270 272 274 276 279 281 282 284 285 288 289 291 293 294 295 296 298 300 301 303 302 303 303 307 304 307 311 312 309 311 317 316 320 323 318 322 324 325 325 324 323 322
265 267 268 269 271 274 277 278 280 281 284 287 287 287 290 292 291 294 296 298 299 301 302 301 301 301 303 306 307 312 312 311 313 317 318 320 323 318 321 321 322 321 320 319 318
265 268 269 271 273 275 276 276 278 282 284 284 285 287 290 292 292 293 295 297 298 299 299 300 301 300 304 305 309 312 309 312 314 316 315 317 320 319 321 320 318 317 317 316 314
268 269 269 272 275 278 277 279 279 283 283 284 286 287 290 292 294 295 296 298 298 299 298 302 302 301 306 303 304 308 311 311 314 315 314 317 317 318 317 316 314 314 313 312 315
Height
10801 10805 10808 10810 10812 10813 10814 10815 10815 10817 10817 10817 10816 10816 10815 10813 10812 10813 10809 10808 10808 10804 10800 10796 10793 10789 10786 10783 10778 10774 10768 10763 10757 10751 10746 10738 10732 10725 10720 10713 10706 10700 10695 10691 10685
10806 10809 10812 10813 10815 10817 10817 10818 10819 10820 10819 10819 10819 10818 10817 10817 10815 10813 10811 10810 10808 10805 10802 10799 10795 10791 10787 10784 10780 10774 10767 10762 10756 10751 10747 10741 10735 10728 10722 10715 10708 10702 10698 10692 10685
10810 10813 10815 10817 10818 10819 10820 10821 10821 10821 10821 10821 10821 10820 10819 10818 10817 10815 10813 10812 10809 10806 10803 10799 10795 10791 10788 10785 10780 10774 10767 10761 10756 10751 10747 10741 10735 10729 10722 10716 10709 10704 10697 10691 10682
10813 10816 10817 10819 10821 10821 10822 10823 10823 10823 10823 10823 10823 10822 10820 10820 10819 10817 10814 10812 10809 10806 10802 10799 10795 10791 10787 10784 10780 10774 10768 10762 10757 10751 10746 10740 10735 10729 10720 10714 10708 10701 10696 10690 10683
10816 10818 10819 10820 10822 10823 10823 10824 10824 10825 10825 10824 10823 10822 10822 10821 10819 10816 10814 10811 10808 10806 10802 10798 10795 10790 10786 10783 10779 10774 10768 10762 10756 10751 10744 10740 10733 10726 10719 10713 10707 10700 10693 10686 10678
10818 10819 10820 10821 10822 10824 10825 10825 10825 10826 10826 10825 10824 10823 10822 10821 10818 10816 10813 10810 10807 10804 10800 10797 10793 10789 10786 10782 10777 10772 10767 10761 10754 10749 10743 10737 10730 10724 10717 10710 10703 10696 10689 10681 10673
10819 10820 10821 10823 10824 10825 10826 10826 10827 10827 10826 10826 10825 10824 10822 10820 10817 10815 10812 10809 10806 10802 10798 10795 10791 10788 10784 10779 10774 10770 10764 10759 10753 10745 10739 10733 10727 10720 10714 10707 10700 10693 10686 10677 10668
10820 10821 10823 10825 10826 10826 10826 10827 10827 10826 10826 10826 10825 10823 10821 10819 10816 10813 10811 10807 10803 10799 10795 10792 10788 10784 10780 10775 10771 10765 10761 10755 10750 10742 10735 10729 10721 10715 10709 10703 10695 10688 10682 10672 10661
10821 10823 10824 10825 10825 10826 10826 10826 10826 10825 10825 10824 10823 10821 10819 10816 10814 10811 10808 10804 10800 10796 10793 10788 10784 10780 10776 10771 10766 10761 10756 10750 10744 10737 10729 10722 10716 10709 10703 10695 10689 10682 10673 10664 10654
10823 10824 10825 10825 10826 10826 10826 10825 10824 10824 10823 10822 10821 10819 10816 10814 10811 10808 10804 10801 10798 10793 10789 10785 10781 10777 10772 10766 10761 10756 10750 10745 10738 10732 10725 10718 10710 10702 10695 10689 10680 10674 10666 10657 10648
10823 10824 10824 10825 10825 10825 10824 10824 10824 10823 10821 10819 10818 10816 10813 10811 10807 10804 10801 10798 10794 10790 10786 10782 10778 10773 10768 10762 10756 10751 10745 10738 10734 10726 10717 10710 10703 10697 10689 10681 10674 10665 10656 10647 10639
10822 10822 10823 10823 10823 10823 10823 10822 10820 10820 10818 10816 10814 10811 10808 10806 10804 10800 10797 10794 10791 10786 10782 10777 10773 10768 10763 10757 10751 10744 10738 10731 10725 10722 10715 10705 10698 10690 10681 10673 10666 10655 10649 10638 10628
10820 10821 10821 10821 10820 10820 10819 10818 10817 10816 10814 10812 10810 10808 10805 10802 10799 10796 10793 10790 10786 10782 10777 10773 10767 10761 10756 10749 10744 10740 10733 10726 10718 10708 10704 10699 10684 10682 10675 10666 10658 10647 10637 10627 10617
10815 10816 10816 10816 10816 10815 10815 10814 10812 10811 10809 10808 10805 10803 10800 10798 10795 10792 10789 10785 10780 10776 10771 10766 10760 10754 10748 10742 10735 10729 10724 10717 10710 10702 10692 10686 10679 10668 10663 10658 10651 10639 10627 10615 10605
10810 10810 10810 10810 10810 10810 10810 10809 10808 10806 10804 10802 10800 10797 10794 10792 10789 10786 10782 10779 10774 10768 10763 10758 10752 10746 10740 10733 10727 10722 10717 10710 10703 10695 10683 10673 10666 10653 10649 10646 10639 10628 10614 10603 10591
10804 10804 10804 10804 10803 10803 10803 10802 10801 10800 10798 10796 10793 10790 10788 10785 10781 10778 10774 10770 10766 10760 10755 10749 10743 10737 10730 10724 10717 10711 10706 10702 10694 10688 10680 10668 10658 10649 10638 10633 10626 10615 10603 10590 10577
10797 10797 10797 10798 10797 10796 10796 10795 10794 10793 10791 10788 10785 10783 10779 10776 10773 10769 10766 10761 10757 10753 10745 10739 10731 10726 10718 10712 10705 10698 10693 10690 10688 10682 10672 10661 10654 10636 10623 10619 10612 10602 10590 10576 10563
10789 10789 10790 10790 10790 10789 10788 10787 10786 10784 10781 10780 10777 10774 10771 10768 10764 10760 10756 10752 10747 10741 10737 10729 10718 10712 10706 10700 10695 10686 10677 10671 10669 10670 10665 10653 10641 10623 10609 10604 10596 10587 10574 10559 10546
10781 10781 10781 10781 10781 10780 10779 10778 10777 10775 10771 10769 10767 10765 10760 10757 10754 10750 10744 10740 10736 10730 10724 10720 10711 10699 10693 10687 10680 10677 10665 10657 10648 10649 10645 10642 10637 10616 10598 10589 10579 10569 10558 10543 10529
10772 10772 10772 10772 10772 10771 10770 10768 10766 10762 10761 10759 10756 10755 10751 10746 10743 10738 10732 10728 10723 10717 10711 10708 10705 10687 10680 10675 10665 10657 10648 10640 10631 10623 10625 10627 10622 10592 10587 10576 10564 10550 10537 10525 10511
10762 10762 10762 10762 10762 10760 10759 10756 10754 10752 10750 10748 10745 10742 10738 10735 10730 10725 10718 10714 10710 10703 10697 10692 10690 10679 10668 10662 10653 10645 10633 10623 10611 10601 10593 10594 10611 10579 10567 10557 10546 10532 10518 10506 10493
10751 10751 10750 10749 10749 10748 10747 10745 10743 10740 10736 10735 10732 10728 10725 10720 10719 10712 10703 10695 10696 10688 10685 10676 10675 10668 10658 10646 10638 10632 10619 10608 10592 10588 10579 10570 10589 10562 10548 10541 10526 10512 10496 10484 10473
10738 10738 10737 10737 10737 10735 10734 10732 10729 10726 10722 10722 10718 10713 10709 10706 10702 10698 10689 10683 10676 10670 10667 10661 10659 10651 10648 10635 10625 10623 10609 10591 10576 10574 10570 10552 10549 10535 10521 10517 10501 10491 10480 10468 10455
10723 10723 10723 10722 10722 10722 10720 10718 10713 10710 10709 10705 10703 10698 10694 10692 10683 10683 10677 10671 10662 10653 10647 10641 10641 10629 10627 10617 10606 10607 10593 10569 10556 10553 10541 10538 10530 10515 10497 10491 10476 10467 10459 10447 10435
10706 10708 10708 10708 10706 10705 10704 10704 10698 10693 10694 10691 10690 10680 10678 10676 10666 10664 10657 10653 10647 10639 10630 10620 10620 10612 10611 10597 10589 10592 10570 10550 10540 10534 10513 10514 10507 10485 10480 10467 10456 10443 10434 10424 10413
10688 10689 10693 10693 10691 10689 10686 10685 10681 10676 10677 10674 10670 10663 10659 10654 10650 10650 10641 10635 10632 10623 10612 10603 10595 10588 10600 10572 10569 10578 10551 10539 10529 10519 10498 10486 10486 10467 10462 10445 10433 10422 10410 10400 10389
10670 10671 10674 10680 10674 10670 10666 10662 10663 10660 10660 10654 10650 10647 10642 10635 10634 10630 10623 10619 10610 10605 10593 10586 10574 10560 10569 10553 10552 10553 10537 10522 10514 10503 10481 10472 10459 10449 10436 10425 10416 10404 10390 10380 10369